SNUGLITE 2
1 52899U 22065F   26165.84446744  .00000834  00000-0  16712-3 0  9994
2 52899  98.2198 310.6791 0008150  39.7607 320.4191 14.64343951210659
UmKA 1 (RS40S)
1 57172U 23091G   26165.79103736  .00006087  00000-0  27859-3 0  9998
2 57172  97.5054 224.4972 0014164 125.1257 235.1308 15.20793943163648
CubeBel-2 (EU11S)
1 57175U 23091K   26165.82804115  .00011810  00000-0  41977-3 0  9991
2 57175  97.5057 229.0235 0011269 121.7238 238.5101 15.29101989163944
RS-38S
1 57189U 23091Z   26165.86749095  .00016199  00000-0  46411-3 0  9998
2 57189  97.5098 235.3058 0008401  84.6116 275.6085 15.35962719164333
SONATE-2
1 59112U 24043Q   26165.37765256  .00039204  00000-0  51236-3 0  9990
2 59112  97.5521 315.6018 0006925 204.5618 155.5308 15.58528868127453
GRBBeta
1 60237U 24128C   26165.49893132  .00003250  00000-0  22870-3 0  9996
2 60237  61.9892 225.6981 0040977 134.1230 226.3246 15.06624478105867
Curium One
1 60242U 24128H   26165.85621869  .00005904  00000-0  34382-3 0  9997
2 60242  61.9771 214.0307 0040059 130.2321 230.2290 15.12487149106102
ROBUSTA-3A
1 60243U 24128J   26165.48894847  .00005962  00000-0  35465-3 0  9992
2 60243  61.9855 217.7867 0041634 127.6328 232.8557 15.11651785106016
CatSat
1 60246U 24125J   26165.57146735  .00054050  00000-0  70126-3 0  9993
2 60246  97.2084  18.0387 0022309 188.6038 171.4839 15.58376360106988
HYPERVIEW-1G (RS66S)
1 61772U 24199AP  26165.83967816  .00134471  00000-0  88413-3 0  9993
2 61772  97.2882  45.4418 0003246 230.5733 129.5245 15.75294454134300
AO-123
1 61781U 24199AY  26165.88437065  .00006962  00000-0  20270-3 0  9996
2 61781  97.3004  34.5765 0012508 323.2971  36.7415 15.35647245133578
JINJUSat 1B
1 63210U 25052A   26165.66630388  .00015935  00000-0  49487-3 0  9994
2 63210  97.4010  62.4184 0005498  96.8305 263.3563 15.33435808 69718
NUSHSAT 1
1 63211U 25052B   26165.64888485  .00019135  00000-0  54927-3 0  9997
2 63211  97.3991  62.9580 0005225  98.7986 261.3850 15.35886277 69758
TEVEL2-4
1 63213U 25052D   26165.63912802  .00017506  00000-0  52486-3 0  9997
2 63213  97.3916  62.0269 0004834 108.6515 251.5253 15.34534475 69720
TEVEL2-5
1 63214U 25052E   26165.65934322  .00017465  00000-0  52650-3 0  9998
2 63214  97.3912  61.9959 0004735 109.6551 250.5203 15.34362309 69721
TEVEL2-6
1 63215U 25052F   26165.67161609  .00017719  00000-0  53470-3 0  9994
2 63215  97.3918  61.9926 0004650 109.6687 250.5058 15.34327721 69725
TEVEL2-1
1 63217U 25052H   26165.63453016  .00016517  00000-0  50712-3 0  9999
2 63217  97.3887  61.5830 0004669 118.6962 241.4750 15.33795129 69704
TEVEL2-3
1 63218U 25052J   26165.62926486  .00016309  00000-0  49991-3 0  9991
2 63218  97.3893  61.5992 0004635 118.6310 241.5399 15.33849370 69709
TEVEL2-2
1 63219U 25052K   26165.63485824  .00016333  00000-0  50139-3 0  9992
2 63219  97.3888  61.5857 0004659 119.6301 240.5407 15.33802849 69700
TEVEL2-9
1 63237U 25052AD  26165.67431105  .00015140  00000-0  49429-3 0  9994
2 63237  97.3950  61.0056 0007595 137.7538 222.4290 15.31831968 69645
TEVEL2-7
1 63238U 25052AE  26165.64940148  .00014819  00000-0  48830-3 0  9991
2 63238  97.3954  60.8982 0007668 138.2760 221.9068 15.31536758 69634
TEVEL2-8
1 63239U 25052AF  26165.65762729  .00015046  00000-0  49598-3 0  9995
2 63239  97.3952  60.8832 0007683 139.0563 221.1257 15.31520897 69633
SPIRONE
1 66657U 25274H   26165.77609560  .00001557  00000-0  15300-3 0  9990
2 66657  97.7484  95.1020 0012905  29.3134 330.8807 14.93537908 29860
K-HERO
1 66660U 25274L   26165.78136303  .00001412  00000-0  13777-3 0  9991
2 66660  97.7491  95.2664 0014849  32.2714 327.9412 14.93954957 29870
SNUGLITE-III DURI
1 66661U 25274M   26165.76920600  .00001604  00000-0  15554-3 0  9999
2 66661  97.7488  95.2747 0015506  33.1529 327.0660 14.93995427 29877
SAKHACUBE-CHOLBON
1 67290U 25313AU  26165.46978724  .00009109  00000-0  36906-3 0  9991
2 67290  97.3940 240.5381 0009142  15.2524 344.8987 15.24846160 25564
RS95S (QMR-KWT-2)
1 67291U 25313AV  26165.46053810  .00013272  00000-0  51443-3 0  9991
2 67291  97.3938 240.6988 0008494  13.5216 346.6249 15.26232612 25579
Ten-Koh2
1 68261U 25241B   26165.65492329  .00005705  00000-0  24669-3 0  9994
2 68261  51.6691 331.6795 0006087 134.4842 225.6634 15.23877984 14528
JACK-002
1 68417U 26067B   26165.85640632  .00005911  00000-0  28269-3 0  9997
2 68417  97.4566 124.4757 0000457  15.8928 344.2321 15.19369946 11592
DISCO 2
1 68431U 26067R   26165.87708211  .00007307  00000-0  35190-3 0  9995
2 68431  97.4601 124.4849 0003056  47.8128 312.3366 15.19043115 11597
HADES-SA (SpinnyONE)
1 68446U 26067AG  26165.12573244  .00018327  00000-0  87744-3 0  9991
2 68446  97.4396 123.4675 0009588  89.7166 270.5168 15.18966575 11467
PARUS-6U1
1 68456U 26067AS  26165.88055899  .00005279  00000-0  26658-3 0  9995
2 68456  97.4551 124.2795 0007556  77.8953 282.3127 15.17496445 11580
SAL-E
1 68458U 26067AU  26165.87635225  .00006822  00000-0  34116-3 0  9996
2 68458  97.4478 124.2131 0008018  85.2168 274.9981 15.17728101 11581
FSI-SAT 2
1 68792U 26088A   26165.36387596  .00005011  00000-0  33951-3 0  9994
2 68792  97.5055 314.6938 0015603 115.5523 244.7320 15.06814908  7861
OrigamiSat 2
1 68795U 26088D   26165.64189356  .00012095  00000-0  77261-3 0  9994
2 68795  97.5059 315.0934 0016212  89.3594 270.9492 15.08683542  7919
ARICA 2
1 68796U 26088E   26165.37531663  .00004505  00000-0  29271-3 0  9992
2 68796  97.5048 314.8244 0016997  89.0989 271.2187 15.08405772  7871
WASEDA-SAT-ZERO-II
1 68797U 26088F   26165.37142758  .00006646  00000-0  42741-3 0  9991
2 68797  97.5045 314.8284 0016760  89.1853 271.1296 15.08613256  7870
MANGARO-II-Piscus
1 68798U 26088G   26165.36215601  .00004465  00000-0  28686-3 0  9998
2 68798  97.5061 314.8475 0020437  91.3861 268.9709 15.08766651  7872
IO-86
1 40931U          25360.30710720  .00000000  00000-0  12800-3 0    00
2 40931   6.0006 332.5373 0012733 338.8432   8.1437 14.79075515    01
LILIUM-4                
1 71922C 26067AC  26089.50133053 -.00014632  00000+0 -74472-3 0    04
2 71922  97.4497  49.1617 0004341   5.9603 355.7042 15.16896692    16
